| time (UTC) | temp F | wind direction | speed MPH | gust MPH | rain 1hr in | rain 24hr in | rain mn in | humidity % | barometer mb |
| 20260507192536 | 67 | 0 | 0.0 | 0.0 | 0.00 | 0.00 | 0.00 | 66 | 1013.2 |
| 20260507192036 | 67 | 0 | 0.0 | 0.0 | 0.00 | 0.00 | 0.00 | 65 | 1013.1 |
| 20260507191550 | 67 | 0 | 0.0 | 0.0 | 0.00 | 0.00 | 0.00 | 64 | 1013.0 |
| 20260507191036 | 68 | 0 | 0.0 | 1.0 | 0.00 | 0.00 | 0.00 | 63 | 1013.0 |
| 20260507190537 | 68 | 0 | 0.0 | 1.0 | 0.00 | 0.00 | 0.00 | 62 | 1012.9 |
| 20260507190051 | 68 | 0 | 0.0 | 2.0 | 0.00 | 0.00 | 0.00 | 61 | 1012.9 |
| 20260507185537 | 69 | 193 | 0.0 | 2.0 | 0.00 | 0.00 | 0.00 | 60 | 1013.0 |
| 20260507185037 | 69 | 0 | 0.0 | 1.0 | 0.00 | 0.00 | 0.00 | 60 | 1012.9 |
| 20260507184603 | 70 | 0 | 0.0 | 2.0 | 0.00 | 0.00 | 0.00 | 60 | 1012.9 |
| 20260507184037 | 70 | 0 | 0.0 | 2.0 | 0.00 | 0.00 | 0.00 | 59 | 1012.9 |
| 20260507183540 | 70 | 231 | 0.0 | 2.0 | 0.00 | 0.00 | 0.00 | 59 | 1012.9 |
| 20260507183046 | 70 | 0 | 0.0 | 2.0 | 0.00 | 0.00 | 0.00 | 58 | 1012.8 |
| 20260507182537 | 71 | 231 | 0.0 | 2.0 | 0.00 | 0.00 | 0.00 | 57 | 1012.8 |
| 20260507182037 | 71 | 0 | 0.0 | 1.0 | 0.00 | 0.00 | 0.00 | 56 | 1012.8 |
| 20260507181548 | 71 | 0 | 0.0 | 3.0 | 0.00 | 0.00 | 0.00 | 56 | 1012.7 |
| 20260507181037 | 71 | 231 | 0.0 | 3.0 | 0.00 | 0.00 | 0.00 | 55 | 1012.7 |
| 20260507180539 | 71 | 222 | 1.0 | 3.0 | 0.00 | 0.00 | 0.00 | 55 | 1012.6 |
| 20260507180048 | 71 | 239 | 1.0 | 3.0 | 0.00 | 0.00 | 0.00 | 54 | 1012.4 |
| 20260507175538 | 71 | 0 | 1.0 | 3.0 | 0.00 | 0.00 | 0.00 | 54 | 1012.3 |
| 20260507175039 | 72 | 240 | 1.0 | 4.0 | 0.00 | 0.00 | 0.00 | 54 | 1012.4 |
| 20260507174550 | 72 | 231 | 2.0 | 5.0 | 0.00 | 0.00 | 0.00 | 53 | 1012.3 |
| 20260507174038 | 72 | 231 | 1.0 | 7.0 | 0.00 | 0.00 | 0.00 | 53 | 1012.3 |
| 20260507173538 | 72 | 259 | 3.0 | 7.0 | 0.00 | 0.00 | 0.00 | 52 | 1012.2 |
| 20260507173048 | 72 | 267 | 3.0 | 6.0 | 0.00 | 0.00 | 0.00 | 52 | 1012.1 |
| 20260507172539 | 72 | 275 | 2.0 | 6.0 | 0.00 | 0.00 | 0.00 | 52 | 1012.1 |
| 20260507172038 | 72 | 228 | 2.0 | 5.0 | 0.00 | 0.00 | 0.00 | 53 | 1012.1 |
| 20260507171550 | 72 | 209 | 1.0 | 7.0 | 0.00 | 0.00 | 0.00 | 53 | 1012.1 |
| 20260507171037 | 73 | 250 | 3.0 | 7.0 | 0.00 | 0.00 | 0.00 | 52 | 1012.1 |
| 20260507170541 | 73 | 215 | 3.0 | 7.0 | 0.00 | 0.00 | 0.00 | 51 | 1012.1 |
| 20260507170046 | 73 | 206 | 1.0 | 8.0 | 0.00 | 0.00 | 0.00 | 51 | 1012.1 |
| 20260507165537 | 73 | 250 | 3.0 | 8.0 | 0.00 | 0.00 | 0.00 | 51 | 1012.1 |
| 20260507165038 | 73 | 208 | 3.0 | 7.0 | 0.00 | 0.00 | 0.00 | 52 | 1012.1 |
| 20260507164547 | 73 | 240 | 2.0 | 6.0 | 0.00 | 0.00 | 0.00 | 54 | 1012.1 |
| 20260507164038 | 73 | 0 | 2.0 | 6.0 | 0.00 | 0.00 | 0.00 | 52 | 1012.0 |
| 20260507163544 | 73 | 269 | 2.0 | 6.0 | 0.00 | 0.00 | 0.00 | 51 | 1012.0 |
| 20260507163047 | 73 | 260 | 1.0 | 6.0 | 0.00 | 0.00 | 0.00 | 52 | 1012.0 |
| 20260507162538 | 73 | 254 | 3.0 | 9.0 | 0.00 | 0.00 | 0.00 | 52 | 1012.0 |
| 20260507162038 | 73 | 227 | 3.0 | 9.0 | 0.00 | 0.00 | 0.00 | 53 | 1012.0 |
| 20260507161549 | 73 | 245 | 4.0 | 8.0 | 0.00 | 0.00 | 0.00 | 53 | 1012.1 |
| 20260507161037 | 73 | 257 | 2.0 | 8.0 | 0.00 | 0.00 | 0.00 | 53 | 1012.0 |
| 20260507160536 | 73 | 300 | 2.0 | 8.0 | 0.00 | 0.00 | 0.00 | 52 | 1012.1 |
| 20260507160048 | 73 | 187 | 2.0 | 8.0 | 0.00 | 0.00 | 0.00 | 52 | 1012.0 |
| 20260507155539 | 73 | 231 | 1.0 | 9.0 | 0.00 | 0.00 | 0.00 | 52 | 1012.1 |
| 20260507155037 | 73 | 232 | 5.0 | 9.0 | 0.00 | 0.00 | 0.00 | 53 | 1011.9 |
| 20260507154548 | 73 | 244 | 2.0 | 7.0 | 0.00 | 0.00 | 0.00 | 53 | 1011.9 |
| 20260507154036 | 73 | 232 | 4.0 | 7.0 | 0.00 | 0.00 | 0.00 | 52 | 1012.0 |
| 20260507153537 | 73 | 305 | 4.0 | 7.0 | 0.00 | 0.00 | 0.00 | 52 | 1012.1 |
| 20260507153047 | 73 | 227 | 2.0 | 6.0 | 0.00 | 0.00 | 0.00 | 54 | 1012.2 |
| 20260507152538 | 73 | 148 | 2.0 | 8.0 | 0.00 | 0.00 | 0.00 | 53 | 1012.2 |
| 20260507152038 | 73 | 256 | 2.0 | 8.0 | 0.00 | 0.00 | 0.00 | 52 | 1012.1 |
| 20260507151547 | 73 | 254 | 4.0 | 8.0 | 0.00 | 0.00 | 0.00 | 53 | 1012.2 |
| 20260507151037 | 73 | 222 | 1.0 | 8.0 | 0.00 | 0.00 | 0.00 | 53 | 1012.1 |
| 20260507150538 | 73 | 244 | 3.0 | 8.0 | 0.00 | 0.00 | 0.00 | 53 | 1012.1 |
| 20260507150057 | 73 | 205 | 2.0 | 7.0 | 0.00 | 0.00 | 0.00 | 53 | 1012.2 |
| 20260507145538 | 73 | 246 | 2.0 | 13.0 | 0.00 | 0.00 | 0.00 | 48 | 1012.2 |
| 20260507145037 | 72 | 234 | 3.0 | 13.0 | 0.00 | 0.00 | 0.00 | 53 | 1012.2 |
| 20260507144553 | 72 | 246 | 7.0 | 13.0 | 0.00 | 0.00 | 0.00 | 52 | 1012.2 |
| 20260507144039 | 72 | 213 | 4.0 | 12.0 | 0.00 | 0.00 | 0.00 | 52 | 1012.1 |
| 20260507143549 | 72 | 178 | 3.0 | 12.0 | 0.00 | 0.00 | 0.00 | 52 | 1012.2 |
| 20260507143055 | 72 | 204 | 5.0 | 12.0 | 0.00 | 0.00 | 0.00 | 52 | 1012.2 |
| 20260507142537 | 72 | 236 | 3.0 | 12.0 | 0.00 | 0.00 | 0.00 | 51 | 1012.3 |
| 20260507142037 | 72 | 271 | 3.0 | 12.0 | 0.00 | 0.00 | 0.00 | 53 | 1012.3 |
| 20260507141552 | 72 | 234 | 4.0 | 12.0 | 0.00 | 0.00 | 0.00 | 54 | 1012.2 |
| 20260507141037 | 72 | 271 | 7.0 | 13.0 | 0.00 | 0.00 | 0.00 | 53 | 1012.3 |
| 20260507140537 | 72 | 288 | 10.0 | 13.0 | 0.00 | 0.00 | 0.00 | 52 | 1012.3 |
| 20260507140044 | 72 | 271 | 6.0 | 13.0 | 0.00 | 0.00 | 0.00 | 52 | 1012.3 |
| 20260507135541 | 72 | 290 | 4.0 | 13.0 | 0.00 | 0.00 | 0.00 | 52 | 1012.3 |
| 20260507135037 | 72 | 209 | 9.0 | 13.0 | 0.00 | 0.00 | 0.00 | 52 | 1012.4 |
| 20260507134629 | 72 | 230 | 6.0 | 13.0 | 0.00 | 0.00 | 0.00 | 53 | 1012.3 |
| 20260507134037 | 71 | 265 | 5.0 | 16.0 | 0.00 | 0.00 | 0.00 | 52 | 1012.4 |
| 20260507133537 | 71 | 246 | 8.0 | 16.0 | 0.00 | 0.00 | 0.00 | 54 | 1012.4 |
| 20260507133053 | 71 | 272 | 5.0 | 9.0 | 0.00 | 0.00 | 0.00 | 55 | 1012.5 |
| 20260507132536 | 71 | 271 | 5.0 | 11.0 | 0.00 | 0.00 | 0.00 | 49 | 1012.5 |
| 20260507132037 | 71 | 246 | 3.0 | 11.0 | 0.00 | 0.00 | 0.00 | 53 | 1012.7 |
| 20260507131610 | 71 | 300 | 6.0 | 11.0 | 0.00 | 0.00 | 0.00 | 53 | 1012.7 |
| 20260507131038 | 71 | 299 | 3.0 | 13.0 | 0.00 | 0.00 | 0.00 | 52 | 1012.7 |
| 20260507130537 | 72 | 259 | 8.0 | 13.0 | 0.00 | 0.00 | 0.00 | 51 | 1012.7 |
| 20260507130051 | 72 | 221 | 6.0 | 12.0 | 0.00 | 0.00 | 0.00 | 52 | 1012.7 |
| 20260507125537 | 71 | 272 | 3.0 | 9.0 | 0.00 | 0.00 | 0.00 | 53 | 1012.6 |
| 20260507125037 | 71 | 292 | 5.0 | 11.0 | 0.00 | 0.00 | 0.00 | 53 | 1012.6 |
| 20260507124546 | 70 | 320 | 5.0 | 13.0 | 0.00 | 0.00 | 0.00 | 55 | 1012.6 |
| 20260507124037 | 70 | 309 | 5.0 | 14.0 | 0.00 | 0.00 | 0.00 | 54 | 1012.7 |
| 20260507123537 | 70 | 336 | 7.0 | 14.0 | 0.00 | 0.00 | 0.00 | 54 | 1012.8 |
| 20260507123048 | 70 | 282 | 4.0 | 11.0 | 0.00 | 0.00 | 0.00 | 53 | 1012.9 |
| 20260507122537 | 70 | 296 | 6.0 | 11.0 | 0.00 | 0.00 | 0.00 | 54 | 1012.9 |
| 20260507122038 | 71 | 290 | 3.0 | 12.0 | 0.00 | 0.00 | 0.00 | 55 | 1012.9 |
| 20260507121548 | 71 | 352 | 5.0 | 12.0 | 0.00 | 0.00 | 0.00 | 54 | 1012.9 |
| 20260507121038 | 71 | 287 | 5.0 | 12.0 | 0.00 | 0.00 | 0.00 | 55 | 1013.0 |
| 20260507120537 | 71 | 277 | 4.0 | 13.0 | 0.00 | 0.00 | 0.00 | 54 | 1013.0 |
| 20260507120051 | 71 | 256 | 9.0 | 13.0 | 0.00 | 0.00 | 0.00 | 55 | 1013.1 |
| 20260507115538 | 70 | 242 | 4.0 | 12.0 | 0.00 | 0.00 | 0.00 | 56 | 1013.1 |
| 20260507115037 | 70 | 250 | 7.0 | 12.0 | 0.00 | 0.00 | 0.00 | 56 | 1013.0 |
| 20260507114548 | 71 | 320 | 5.0 | 11.0 | 0.00 | 0.00 | 0.00 | 55 | 1013.2 |
| 20260507114037 | 70 | 258 | 4.0 | 12.0 | 0.00 | 0.00 | 0.00 | 55 | 1013.3 |
| 20260507113538 | 70 | 301 | 5.0 | 12.0 | 0.00 | 0.00 | 0.00 | 57 | 1013.3 |
| 20260507113048 | 70 | 302 | 4.0 | 10.0 | 0.00 | 0.00 | 0.00 | 56 | 1013.4 |
| 20260507112537 | 69 | 203 | 2.0 | 12.0 | 0.00 | 0.00 | 0.00 | 57 | 1013.4 |
| 20260507112037 | 69 | 246 | 3.0 | 12.0 | 0.00 | 0.00 | 0.00 | 57 | 1013.4 |
| 20260507111544 | 69 | 317 | 7.0 | 12.0 | 0.00 | 0.00 | 0.00 | 57 | 1013.5 |
| 20260507111037 | 69 | 300 | 6.0 | 12.0 | 0.00 | 0.00 | 0.00 | 57 | 1013.6 |
| 20260507110536 | 68 | 312 | 5.0 | 15.0 | 0.00 | 0.00 | 0.00 | 54 | 1013.6 |
| 20260507110045 | 69 | 327 | 8.0 | 15.0 | 0.00 | 0.00 | 0.00 | 57 | 1013.6 |
| 20260507105536 | 69 | 313 | 5.0 | 10.0 | 0.00 | 0.00 | 0.00 | 58 | 1013.7 |
| 20260507105038 | 68 | 24 | 3.0 | 10.0 | 0.00 | 0.00 | 0.00 | 58 | 1013.7 |
| 20260507104543 | 68 | 266 | 6.0 | 12.0 | 0.00 | 0.00 | 0.00 | 60 | 1013.7 |
| 20260507104038 | 68 | 290 | 5.0 | 12.0 | 0.00 | 0.00 | 0.00 | 60 | 1013.8 |
| 20260507103537 | 68 | 320 | 3.0 | 11.0 | 0.00 | 0.00 | 0.00 | 61 | 1013.9 |
| 20260507103048 | 67 | 226 | 5.0 | 11.0 | 0.00 | 0.00 | 0.00 | 61 | 1013.9 |
| 20260507102538 | 67 | 246 | 6.0 | 10.0 | 0.00 | 0.00 | 0.00 | 62 | 1013.8 |
| 20260507102038 | 67 | 340 | 2.0 | 9.0 | 0.00 | 0.00 | 0.00 | 64 | 1013.9 |
| 20260507101546 | 67 | 351 | 5.0 | 12.0 | 0.00 | 0.00 | 0.00 | 65 | 1014.0 |
| 20260507101038 | 66 | 313 | 5.0 | 12.0 | 0.00 | 0.00 | 0.00 | 64 | 1014.0 |
| 20260507100537 | 66 | 15 | 5.0 | 11.0 | 0.00 | 0.00 | 0.00 | 65 | 1014.0 |
| 20260507100049 | 66 | 291 | 4.0 | 11.0 | 0.00 | 0.00 | 0.00 | 64 | 1014.0 |
| 20260507095537 | 67 | 336 | 5.0 | 11.0 | 0.00 | 0.27 | 0.00 | 64 | 1014.1 |
| 20260507095037 | 67 | 306 | 6.0 | 11.0 | 0.00 | 0.27 | 0.00 | 65 | 1014.1 |
| 20260507094546 | 66 | 60 | 5.0 | 10.0 | 0.00 | 0.27 | 0.00 | 66 | 1014.1 |
| 20260507094038 | 66 | 331 | 5.0 | 10.0 | 0.00 | 0.27 | 0.00 | 68 | 1014.1 |
| 20260507093537 | 65 | 0 | 4.0 | 11.0 | 0.00 | 0.27 | 0.00 | 69 | 1014.1 |
| 20260507093053 | 64 | 346 | 4.0 | 14.0 | 0.00 | 0.27 | 0.00 | 70 | 1014.1 |
| 20260507092538 | 64 | 304 | 7.0 | 14.0 | 0.00 | 0.27 | 0.00 | 68 | 1014.0 |
| 20260507092037 | 64 | 294 | 5.0 | 13.0 | 0.00 | 0.27 | 0.00 | 70 | 1014.1 |
| 20260507091548 | 64 | 338 | 7.0 | 13.0 | 0.00 | 0.27 | 0.00 | 70 | 1014.1 |
| 20260507091038 | 64 | 253 | 4.0 | 12.0 | 0.00 | 0.27 | 0.00 | 72 | 1014.0 |
| 20260507090537 | 63 | 300 | 7.0 | 12.0 | 0.00 | 0.27 | 0.00 | 72 | 1014.0 |
| 20260507090047 | 64 | 329 | 8.0 | 16.0 | 0.00 | 0.27 | 0.00 | 71 | 1014.0 |
| 20260507085537 | 65 | 321 | 8.0 | 16.0 | 0.00 | 0.37 | 0.00 | 71 | 1014.0 |
| 20260507085039 | 65 | 282 | 7.0 | 16.0 | 0.00 | 0.37 | 0.00 | 64 | 1014.0 |
| 20260507084550 | 65 | 278 | 4.0 | 9.0 | 0.00 | 0.37 | 0.00 | 66 | 1014.0 |
| 20260507084037 | 66 | 232 | 2.0 | 9.0 | 0.00 | 0.37 | 0.00 | 67 | 1013.8 |
| 20260507083537 | 65 | 304 | 4.0 | 9.0 | 0.00 | 0.37 | 0.00 | 66 | 1013.8 |
| 20260507083049 | 65 | 0 | 2.0 | 9.0 | 0.00 | 0.37 | 0.00 | 67 | 1013.8 |
| 20260507082537 | 65 | 221 | 4.0 | 9.0 | 0.00 | 0.37 | 0.00 | 67 | 1013.8 |
| 20260507082039 | 65 | 315 | 3.0 | 8.0 | 0.00 | 0.37 | 0.00 | 67 | 1013.8 |
| 20260507081546 | 64 | 331 | 4.0 | 6.0 | 0.00 | 0.37 | 0.00 | 67 | 1014.0 |
| 20260507081038 | 64 | 291 | 3.0 | 5.0 | 0.00 | 0.37 | 0.00 | 68 | 1013.8 |
| 20260507080537 | 63 | 311 | 0.0 | 2.0 | 0.00 | 0.37 | 0.00 | 69 | 1013.9 |
| 20260507080100 | 63 | 218 | 0.0 | 4.0 | 0.00 | 0.37 | 0.00 | 72 | 1013.8 |
| 20260507075538 | 62 | 0 | 0.0 | 4.0 | 0.00 | 0.37 | 0.00 | 75 | 1013.7 |
| 20260507075037 | 61 | 163 | 0.0 | 3.0 | 0.00 | 0.37 | 0.00 | 77 | 1013.8 |
| 20260507074551 | 61 | 0 | 1.0 | 3.0 | 0.00 | 0.37 | 0.00 | 77 | 1013.7 |
| 20260507074037 | 60 | 178 | 0.0 | 2.0 | 0.00 | 0.37 | 0.00 | 77 | 1013.7 |
| 20260507073537 | 60 | 155 | 0.0 | 2.0 | 0.00 | 0.37 | 0.00 | 79 | 1013.7 |
| 20260507073048 | 60 | 0 | 0.0 | 2.0 | 0.00 | 0.37 | 0.00 | 78 | 1013.6 |
| 20260507072538 | 60 | 0 | 0.0 | 3.0 | 0.00 | 0.37 | 0.00 | 78 | 1013.6 |
| 20260507072113 | 59 | 301 | 1.0 | 3.0 | 0.00 | 0.37 | 0.00 | 79 | 1013.7 |
| 20260507071606 | 59 | 295 | 1.0 | 4.0 | 0.00 | 0.37 | 0.00 | 80 | 1013.6 |
| 20260507071038 | 59 | 302 | 2.0 | 4.0 | 0.00 | 0.37 | 0.00 | 80 | 1013.5 |
| 20260507070537 | 59 | 327 | 0.0 | 4.0 | 0.00 | 0.37 | 0.00 | 80 | 1013.4 |
| 20260507070048 | 59 | 292 | 1.0 | 4.0 | 0.00 | 0.37 | 0.00 | 81 | 1013.4 |
| 20260507065537 | 58 | 0 | 0.0 | 1.0 | 0.00 | 0.38 | 0.00 | 81 | 1013.3 |
| 20260507065037 | 58 | 0 | 0.0 | 1.0 | 0.00 | 0.38 | 0.00 | 81 | 1013.2 |
| 20260507064546 | 58 | 0 | 0.0 | 2.0 | 0.00 | 0.38 | 0.00 | 82 | 1013.2 |
| 20260507064037 | 58 | 0 | 0.0 | 2.0 | 0.00 | 0.38 | 0.00 | 82 | 1013.1 |
| 20260507063538 | 57 | 0 | 0.0 | 2.0 | 0.00 | 0.38 | 0.00 | 83 | 1013.1 |
| 20260507063047 | 57 | 258 | 0.0 | 2.0 | 0.00 | 0.38 | 0.00 | 84 | 1013.2 |
| 20260507062538 | 56 | 0 | 0.0 | 2.0 | 0.00 | 0.38 | 0.00 | 85 | 1013.1 |
| 20260507062038 | 56 | 305 | 0.0 | 3.0 | 0.00 | 0.38 | 0.00 | 85 | 1013.1 |
| 20260507061545 | 56 | 305 | 1.0 | 4.0 | 0.00 | 0.38 | 0.00 | 86 | 1013.0 |
| 20260507061038 | 55 | 300 | 1.0 | 4.0 | 0.00 | 0.38 | 0.00 | 86 | 1012.9 |
| 20260507060538 | 55 | 331 | 2.0 | 3.0 | 0.00 | 0.38 | 0.00 | 86 | 1012.9 |
| 20260507060045 | 55 | 287 | 1.0 | 3.0 | 0.00 | 0.38 | 0.00 | 87 | 1012.8 |
| 20260507055538 | 55 | 307 | 2.0 | 3.0 | 0.00 | 0.38 | 0.00 | 87 | 1012.9 |
| 20260507055037 | 55 | 5 | 1.0 | 3.0 | 0.00 | 0.38 | 0.00 | 88 | 1012.8 |
| 20260507054545 | 55 | 0 | 0.0 | 3.0 | 0.00 | 0.38 | 0.00 | 88 | 1012.8 |
| 20260507054037 | 55 | 284 | 1.0 | 3.0 | 0.00 | 0.38 | 0.00 | 88 | 1012.8 |
| 20260507053538 | 54 | 254 | 1.0 | 4.0 | 0.00 | 0.38 | 0.00 | 88 | 1012.8 |
| 20260507053111 | 54 | 254 | 2.0 | 4.0 | 0.00 | 0.38 | 0.00 | 89 | 1012.7 |
| 20260507052538 | 54 | 229 | 2.0 | 4.0 | 0.00 | 0.38 | 0.00 | 89 | 1012.6 |
| 20260507052037 | 54 | 0 | 0.0 | 3.0 | 0.00 | 0.38 | 0.00 | 88 | 1012.5 |
| 20260507051552 | 54 | 246 | 1.0 | 3.0 | 0.00 | 0.38 | 0.00 | 88 | 1012.5 |
| 20260507051037 | 54 | 0 | 1.0 | 2.0 | 0.00 | 0.38 | 0.00 | 88 | 1012.4 |
| 20260507050538 | 54 | 0 | 0.0 | 2.0 | 0.00 | 0.38 | 0.00 | 88 | 1012.3 |
| 20260507050046 | 54 | 0 | 0.0 | 1.0 | 0.00 | 0.38 | 0.00 | 88 | 1012.2 |
| 20260507045539 | 54 | 11 | 0.0 | 1.0 | 0.00 | 0.52 | 0.00 | 88 | 1012.1 |
| 20260507045039 | 54 | 0 | 0.0 | 1.0 | 0.00 | 0.52 | 0.00 | 87 | 1012.2 |
| 20260507044547 | 54 | 0 | 0.0 | 0.0 | 0.00 | 0.52 | 0.00 | 87 | 1012.1 |
| 20260507044037 | 54 | 0 | 0.0 | 0.0 | 0.00 | 0.52 | 0.00 | 87 | 1012.0 |
| 20260507043537 | 54 | 0 | 0.0 | 0.0 | 0.00 | 0.52 | 0.00 | 87 | 1011.9 |
| 20260507043047 | 54 | 0 | 0.0 | 1.0 | 0.00 | 0.52 | 0.00 | 87 | 1012.0 |
| 20260507042538 | 54 | 0 | 0.0 | 2.0 | 0.00 | 0.52 | 0.00 | 87 | 1011.9 |
| 20260507042037 | 54 | 0 | 0.0 | 2.0 | 0.00 | 0.52 | 0.00 | 87 | 1011.8 |
| 20260507041547 | 54 | 5 | 0.0 | 2.0 | 0.00 | 0.52 | 0.00 | 87 | 1011.8 |
| 20260507041037 | 54 | 5 | 0.0 | 2.0 | 0.00 | 0.52 | 0.00 | 87 | 1011.9 |
| 20260507040538 | 54 | 0 | 0.0 | 2.0 | 0.00 | 0.52 | 0.00 | 87 | 1011.8 |
| 20260507040134 | 54 | 0 | 0.0 | 2.0 | 0.00 | 0.52 | 0.00 | 87 | 1011.8 |
| 20260507035538 | 54 | 0 | 0.0 | 2.0 | 0.00 | 0.61 | 0.00 | 86 | 1011.8 |
| 20260507035037 | 54 | 352 | 0.0 | 3.0 | 0.00 | 0.61 | 0.00 | 86 | 1011.9 |
| 20260507034546 | 54 | 0 | 0.0 | 5.0 | 0.00 | 0.61 | 0.00 | 86 | 1012.0 |
| 20260507034037 | 54 | 10 | 2.0 | 5.0 | 0.00 | 0.61 | 0.00 | 87 | 1011.9 |
| 20260507033538 | 54 | 332 | 2.0 | 4.0 | 0.00 | 0.61 | 0.00 | 86 | 1011.8 |
| 20260507033052 | 54 | 334 | 2.0 | 5.0 | 0.00 | 0.61 | 0.00 | 86 | 1011.8 |
| 20260507032539 | 54 | 352 | 2.0 | 7.0 | 0.00 | 0.61 | 0.00 | 86 | 1011.8 |
| 20260507032037 | 54 | 329 | 3.0 | 7.0 | 0.00 | 0.61 | 0.00 | 86 | 1011.7 |
| 20260507031553 | 54 | 316 | 2.0 | 4.0 | 0.00 | 0.61 | 0.00 | 86 | 1011.8 |
| 20260507031040 | 54 | 321 | 2.0 | 5.0 | 0.00 | 0.61 | 0.00 | 86 | 1011.7 |
| 20260507030537 | 54 | 344 | 2.0 | 5.0 | 0.00 | 0.61 | 0.00 | 85 | 1011.7 |
| 20260507030050 | 54 | 346 | 2.0 | 5.0 | 0.00 | 0.61 | 0.00 | 85 | 1011.7 |
| 20260507025537 | 54 | 340 | 2.0 | 5.0 | 0.00 | 0.61 | 0.00 | 85 | 1011.7 |
| 20260507025037 | 54 | 338 | 3.0 | 4.0 | 0.00 | 0.61 | 0.00 | 85 | 1011.7 |
| 20260507024550 | 55 | 352 | 2.0 | 5.0 | 0.00 | 0.61 | 0.00 | 85 | 1011.7 |
| 20260507024039 | 55 | 17 | 2.0 | 6.0 | 0.00 | 0.61 | 0.00 | 85 | 1011.6 |
| 20260507023537 | 55 | 360 | 2.0 | 6.0 | 0.00 | 0.61 | 0.00 | 84 | 1011.6 |
| 20260507023047 | 55 | 9 | 2.0 | 6.0 | 0.00 | 0.61 | 0.00 | 84 | 1011.5 |
| 20260507022537 | 55 | 342 | 3.0 | 8.0 | 0.00 | 0.61 | 0.00 | 84 | 1011.6 |
| 20260507022039 | 55 | 327 | 3.0 | 8.0 | 0.00 | 0.61 | 0.00 | 84 | 1011.5 |
| 20260507021545 | 55 | 338 | 4.0 | 6.0 | 0.00 | 0.61 | 0.00 | 83 | 1011.6 |
| 20260507021038 | 55 | 347 | 3.0 | 6.0 | 0.00 | 0.61 | 0.00 | 83 | 1011.6 |
| 20260507020538 | 55 | 5 | 3.0 | 5.0 | 0.00 | 0.61 | 0.00 | 83 | 1011.6 |
| 20260507020047 | 55 | 360 | 3.0 | 5.0 | 0.00 | 0.61 | 0.00 | 83 | 1011.6 |
| 20260507015537 | 55 | 340 | 2.0 | 8.0 | 0.00 | 0.61 | 0.00 | 83 | 1011.5 |
| 20260507015038 | 56 | 319 | 2.0 | 8.0 | 0.00 | 0.61 | 0.00 | 83 | 1011.5 |
| 20260507014601 | 56 | 304 | 4.0 | 8.0 | 0.00 | 0.61 | 0.00 | 82 | 1011.6 |
| 20260507014038 | 56 | 332 | 2.0 | 8.0 | 0.00 | 0.61 | 0.00 | 82 | 1011.4 |
| 20260507013537 | 56 | 325 | 4.0 | 8.0 | 0.00 | 0.61 | 0.00 | 82 | 1011.4 |
| 20260507013050 | 56 | 318 | 3.0 | 7.0 | 0.00 | 0.61 | 0.00 | 82 | 1011.4 |
| 20260507012537 | 56 | 286 | 3.0 | 8.0 | 0.00 | 0.61 | 0.00 | 82 | 1011.4 |
| 20260507012037 | 56 | 307 | 4.0 | 8.0 | 0.00 | 0.61 | 0.00 | 82 | 1011.4 |
| 20260507011552 | 56 | 309 | 3.0 | 7.0 | 0.00 | 0.61 | 0.00 | 82 | 1011.4 |
| 20260507011038 | 56 | 325 | 2.0 | 7.0 | 0.00 | 0.61 | 0.00 | 82 | 1011.4 |
| 20260507010537 | 56 | 344 | 3.0 | 7.0 | 0.00 | 0.61 | 0.00 | 82 | 1011.2 |
| 20260507010054 | 56 | 9 | 3.0 | 8.0 | 0.00 | 0.61 | 0.00 | 82 | 1011.3 |
| 20260507005539 | 56 | 336 | 3.0 | 8.0 | 0.00 | 0.61 | 0.00 | 82 | 1011.3 |
| 20260507005038 | 56 | 321 | 4.0 | 8.0 | 0.00 | 0.61 | 0.00 | 82 | 1011.3 |
| 20260507004559 | 56 | 5 | 4.0 | 6.0 | 0.00 | 0.61 | 0.00 | 82 | 1011.3 |
| 20260507004038 | 56 | 352 | 4.0 | 6.0 | 0.00 | 0.61 | 0.00 | 82 | 1011.4 |
| 20260507003538 | 56 | 331 | 4.0 | 6.0 | 0.00 | 0.61 | 0.00 | 82 | 1011.4 |
| 20260507003046 | 56 | 341 | 3.0 | 6.0 | 0.00 | 0.61 | 0.00 | 82 | 1011.5 |
| 20260507002538 | 56 | 346 | 3.0 | 5.0 | 0.00 | 0.61 | 0.00 | 82 | 1011.4 |
| 20260507002038 | 56 | 335 | 3.0 | 5.0 | 0.00 | 0.61 | 0.00 | 82 | 1011.4 |
| 20260507001551 | 56 | 343 | 2.0 | 5.0 | 0.00 | 0.61 | 0.00 | 82 | 1011.4 |
| 20260507001037 | 56 | 349 | 3.0 | 5.0 | 0.00 | 0.61 | 0.00 | 82 | 1011.5 |
| 20260507000538 | 56 | 352 | 3.0 | 8.0 | 0.00 | 0.61 | 0.00 | 82 | 1011.5 |
| 20260507000054 | 56 | 345 | 3.0 | 8.0 | 0.00 | 0.61 | 0.00 | 82 | 1011.4 |
| 20260506235539 | 56 | 348 | 4.0 | 8.0 | 0.00 | 0.61 | 0.00 | 83 | 1011.4 |
| 20260506235037 | 56 | 21 | 4.0 | 8.0 | 0.00 | 0.61 | 0.00 | 83 | 1011.3 |
| 20260506234545 | 56 | 351 | 3.0 | 8.0 | 0.00 | 0.61 | 0.00 | 83 | 1011.4 |
| 20260506234040 | 56 | 342 | 3.0 | 5.0 | 0.00 | 0.61 | 0.00 | 83 | 1011.4 |
| 20260506233540 | 56 | 338 | 3.0 | 5.0 | 0.00 | 0.61 | 0.00 | 83 | 1011.3 |
| 20260506233056 | 56 | 331 | 2.0 | 5.0 | 0.00 | 0.61 | 0.00 | 82 | 1011.3 |
| 20260506232537 | 56 | 352 | 2.0 | 8.0 | 0.00 | 0.61 | 0.00 | 83 | 1011.2 |
| 20260506232035 | 56 | 347 | 3.0 | 8.0 | 0.00 | 0.61 | 0.00 | 82 | 1011.1 |
| 20260506231546 | 56 | 352 | 4.0 | 8.0 | 0.00 | 0.61 | 0.00 | 82 | 1011.0 |
| 20260506231035 | 56 | 5 | 3.0 | 7.0 | 0.00 | 0.61 | 0.00 | 82 | 1010.9 |
| 20260506230534 | 56 | 352 | 2.0 | 6.0 | 0.00 | 0.61 | 0.00 | 82 | 1010.9 |
| 20260506230051 | 56 | 5 | 2.0 | 6.0 | 0.00 | 0.61 | 0.00 | 82 | 1010.9 |
| 20260506225541 | 56 | 343 | 3.0 | 6.0 | 0.00 | 0.62 | 0.00 | 81 | 1010.8 |
| 20260506225038 | 57 | 9 | 3.0 | 6.0 | 0.00 | 0.62 | 0.00 | 81 | 1010.8 |
| 20260506224553 | 57 | 329 | 3.0 | 8.0 | 0.00 | 0.62 | 0.00 | 81 | 1010.9 |
| 20260506224039 | 57 | 352 | 3.0 | 8.0 | 0.00 | 0.62 | 0.00 | 81 | 1010.9 |
| 20260506223537 | 57 | 339 | 3.0 | 5.0 | 0.00 | 0.62 | 0.00 | 80 | 1010.8 |
| 20260506223045 | 57 | 323 | 2.0 | 7.0 | 0.00 | 0.62 | 0.00 | 80 | 1010.9 |
| 20260506222538 | 57 | 317 | 2.0 | 7.0 | 0.00 | 0.62 | 0.00 | 80 | 1011.0 |
| 20260506222038 | 57 | 300 | 2.0 | 6.0 | 0.00 | 0.62 | 0.00 | 80 | 1011.0 |
| 20260506221549 | 57 | 281 | 2.0 | 4.0 | 0.00 | 0.62 | 0.00 | 80 | 1011.0 |
| 20260506221037 | 57 | 259 | 2.0 | 3.0 | 0.00 | 0.62 | 0.00 | 80 | 1011.0 |
| 20260506220537 | 57 | 298 | 1.0 | 4.0 | 0.00 | 0.62 | 0.00 | 79 | 1011.0 |
| 20260506220049 | 57 | 56 | 0.0 | 4.0 | 0.00 | 0.62 | 0.00 | 79 | 1010.9 |
| 20260506215537 | 57 | 0 | 1.0 | 6.0 | 0.00 | 0.62 | 0.62 | 79 | 1010.9 |
| 20260506215039 | 57 | 360 | 3.0 | 6.0 | 0.00 | 0.62 | 0.62 | 79 | 1010.8 |
| 20260506214600 | 58 | 346 | 2.0 | 6.0 | 0.00 | 0.62 | 0.62 | 78 | 1010.7 |
| 20260506214036 | 58 | 14 | 2.0 | 9.0 | 0.00 | 0.62 | 0.62 | 78 | 1010.8 |
| 20260506213541 | 58 | 67 | 3.0 | 9.0 | 0.00 | 0.62 | 0.62 | 78 | 1010.7 |
| 20260506213049 | 58 | 20 | 4.0 | 9.0 | 0.00 | 0.62 | 0.62 | 77 | 1010.7 |
| 20260506212538 | 58 | 42 | 3.0 | 8.0 | 0.00 | 0.62 | 0.62 | 77 | 1010.7 |
| 20260506212038 | 58 | 26 | 3.0 | 9.0 | 0.00 | 0.62 | 0.62 | 77 | 1010.7 |
| 20260506211547 | 58 | 12 | 4.0 | 10.0 | 0.00 | 0.62 | 0.62 | 77 | 1010.7 |
| 20260506211038 | 58 | 360 | 5.0 | 10.0 | 0.00 | 0.62 | 0.62 | 77 | 1010.8 |
| 20260506210537 | 58 | 338 | 5.0 | 10.0 | 0.00 | 0.62 | 0.62 | 77 | 1010.7 |
| 20260506210050 | 58 | 48 | 3.0 | 8.0 | 0.00 | 0.62 | 0.62 | 78 | 1010.7 |
| 20260506205538 | 58 | 337 | 3.0 | 8.0 | 0.00 | 0.66 | 0.62 | 78 | 1010.7 |
| 20260506205037 | 58 | 352 | 4.0 | 9.0 | 0.00 | 0.66 | 0.62 | 78 | 1010.7 |
| 20260506204551 | 58 | 360 | 4.0 | 10.0 | 0.00 | 0.66 | 0.62 | 78 | 1010.7 |
| 20260506204037 | 58 | 344 | 4.0 | 10.0 | 0.00 | 0.66 | 0.62 | 78 | 1010.7 |
| 20260506203540 | 58 | 337 | 5.0 | 12.0 | 0.00 | 0.66 | 0.62 | 78 | 1010.6 |
| 20260506203048 | 58 | 11 | 6.0 | 12.0 | 0.00 | 0.66 | 0.62 | 78 | 1010.7 |
| 20260506202537 | 58 | 13 | 6.0 | 10.0 | 0.00 | 0.66 | 0.62 | 78 | 1010.4 |
| 20260506202036 | 57 | 352 | 6.0 | 13.0 | 0.00 | 0.66 | 0.62 | 79 | 1010.4 |
| 20260506201548 | 57 | 360 | 7.0 | 13.0 | 0.00 | 0.66 | 0.62 | 79 | 1010.4 |
| 20260506201036 | 57 | 11 | 7.0 | 13.0 | 0.00 | 0.66 | 0.62 | 80 | 1010.4 |
| 20260506200535 | 57 | 43 | 7.0 | 14.0 | 0.00 | 0.66 | 0.62 | 81 | 1010.3 |
| 20260506200100 | 57 | 26 | 8.0 | 14.0 | 0.00 | 0.66 | 0.62 | 82 | 1010.4 |
| 20260506195536 | 57 | 327 | 7.0 | 12.0 | 0.00 | 0.67 | 0.62 | 82 | 1010.4 |
| 20260506195038 | 57 | 352 | 6.0 | 12.0 | 0.00 | 0.67 | 0.62 | 82 | 1010.3 |
| 20260506194551 | 57 | 317 | 7.0 | 12.0 | 0.00 | 0.67 | 0.62 | 82 | 1010.4 |
| 20260506194039 | 58 | 345 | 8.0 | 12.0 | 0.00 | 0.67 | 0.62 | 82 | 1010.3 |
| 20260506193535 | 58 | 330 | 5.0 | 11.0 | 0.00 | 0.67 | 0.62 | 81 | 1010.0 |
| 20260506193054 | 58 | 328 | 3.0 | 9.0 | 0.00 | 0.67 | 0.62 | 80 | 1009.9 |